Location: Unspecified
(35.6961°N, 0.0000°E)
Time: 11:01:56
(UTC+00:00)

Vanguard 2 Rocket - Pass Details

Date: 01 June 2019
Orbit: 554 x 3326 km, 32.9° (Epoch: 16 June)

Event Time Altitude Azimuth Distance (km) Brightness Sun altitude
Rises 05:00:52 0° 260° (W) 7,215 10.8 1.9°
Reaches altitude 10° 05:05:37 10° 259° (W) 6,271 10.6 2.8°
Maximum altitude 05:26:09 81° 177° (S) 2,965 9.6 6.6°
Drops below altitude 10° 05:40:32 10° 92° (E) 4,625 12.0 9.3°
Sets 05:43:28 0° 92° (E) 5,322 12.3 9.9°
